Location: New Greens
(51.7702°N, 0.3379°W)
Time: 07:57:04
(UTC+00:00)

OTV 5 (USA 277) - Visible Passes

Search period start: 20 November 2018 00:00
Search period end: 30 November 2018 00:00
Orbit: 339 x 348 km, 54.5° (Epoch: 14 November)

Date Brightness Start Highest point End Pass type
(mag) Time Alt. Az. Time Alt. Az. Time Alt. Az.
24 Nov ? 06:40:22 10° S 06:41:58 14° SE 06:43:35 10° ESE visible
26 Nov ? 05:52:36 10° SSE 05:54:08 13° SE 05:55:39 10° ESE visible
27 Nov ? 06:14:44 10° SSW 06:17:19 30° SE 06:19:54 10° E visible
28 Nov ? 05:05:14 11° SSE 05:06:15 13° SE 05:07:41 10° ESE visible
28 Nov ? 06:37:49 10° WSW 06:40:41 67° SSE 06:43:33 10° ENE visible
29 Nov ? 05:28:39 25° S 05:29:25 29° SE 05:31:59 10° E visible
29 Nov ? 07:01:17 10° W 07:04:10 67° NNW 07:07:02 10° ENE visible
